Sedona, AZ

10:19 PM MST on October 15, 2019 (GMT -0700)
Sedona

Weather History for KSEZ - August, 2019

Change the Weather History Date:

Friday, August 9, 2019

  Actual Average Record
Temperature  
Mean Temperature 80 °F -  
Max Temperature 89 °F 96 °F 100 °F (2012)
Min Temperature 71 °F 63 °F 64 °F (2013)
Cooling Degree Days 15    
Growing Degree Days 30 (Base 50)    
Moisture  
Dew Point 52 °F    
Average Humidity 40    
Maximum Humidity 50    
Minimum Humidity 29    
Precipitation  
Precipitation 0.00 in - - ()
Sea Level Pressure  
Sea Level Pressure 30.12 in    
Wind  
Wind Speed 4 mph (East)    
Max Wind Speed 15 mph    
Max Gust Speed 22 mph    
Visibility 10 miles    
Events      
Averages and records for this station are not official NWS values.
T = Trace of Precipitation, MM = Missing Value Source: NWS Daily Summary

Daily Weather History Graph

Daily Weather History Graph

Search for Another Location

Airport or City:

Astronomy

Aug. 09, 2019 Rise Set
Actual Time 5:42 AM MST 7:22 PM MST
Civil Twilight 5:15 AM MST 7:49 PM MST
Nautical Twilight 4:42 AM MST 8:21 PM MST
Astronomical Twilight 4:08 AM MST 8:56 PM MST
Moon 3:04 PM MST (8/9) 12:43 AM MST (8/9)
Length of Visible Light 14h 33m
Length of Day
13h 39m
Waxing Gibbous, 71% of the Moon is Illuminated
Aug 9
Waxing Gibbous
Aug 15
Full
Aug 23
Last Quarter
Aug 30
New
Sep 5
First Quarter

Hourly Weather History & Observations

Time (MST) Temp. Heat Index Dew Point Humidity Pressure Visibility Wind Dir Wind Speed Gust Speed Precip Events Conditions
12:15 AM 78.8 °F - 50.0 °F 36% 30.10 in 10.0 mi Calm Calm - N/A   Clear
12:35 AM 78.8 °F - 50.0 °F 36% 30.10 in 10.0 mi Calm Calm - N/A   Clear
12:55 AM 78.8 °F - 50.0 °F 36% 30.10 in 10.0 mi Calm Calm - N/A   Clear
1:15 AM 78.8 °F - 48.2 °F 34% 30.09 in 10.0 mi Calm Calm - N/A   Clear
1:35 AM 78.8 °F - 50.0 °F 36% 30.09 in 10.0 mi Calm Calm - N/A   Clear
1:55 AM 77.0 °F - 50.0 °F 39% 30.09 in 10.0 mi Calm Calm - N/A   Clear
2:15 AM 77.0 °F - 50.0 °F 39% 30.09 in 10.0 mi Calm Calm - N/A   Clear
2:35 AM 73.4 °F - 50.0 °F 44% 30.09 in 10.0 mi NNE 6.9 mph - N/A   Clear
2:55 AM 73.4 °F - 50.0 °F 44% 30.08 in 10.0 mi NNE 6.9 mph - N/A   Clear
3:15 AM 73.4 °F - 50.0 °F 44% 30.09 in 10.0 mi NNE 6.9 mph - N/A   Clear
3:35 AM 73.4 °F - 50.0 °F 44% 30.08 in 10.0 mi NNE 9.2 mph - N/A   Clear
3:55 AM 73.4 °F - 50.0 °F 44% 30.08 in 10.0 mi NNE 9.2 mph - N/A   Clear
4:15 AM 73.4 °F - 50.0 °F 44% 30.09 in 10.0 mi NNE 8.1 mph - N/A   Clear
4:35 AM 73.4 °F - 50.0 °F 44% 30.09 in 10.0 mi NNE 6.9 mph - N/A   Clear
4:55 AM 73.4 °F - 50.0 °F 44% 30.09 in 10.0 mi NNE 8.1 mph - N/A   Clear
5:15 AM 71.6 °F - 50.0 °F 46% 30.10 in 10.0 mi NNE 8.1 mph - N/A   Clear
5:35 AM 73.4 °F - 50.0 °F 44% 30.10 in 10.0 mi NE 9.2 mph - N/A   Clear
5:55 AM 73.4 °F - 50.0 °F 44% 30.11 in 10.0 mi NE 8.1 mph - N/A   Clear
6:15 AM 73.4 °F - 50.0 °F 44% 30.13 in 10.0 mi NNE 6.9 mph - N/A   Clear
6:35 AM 73.4 °F - 50.0 °F 44% 30.13 in 10.0 mi NE 5.8 mph - N/A   Clear
6:55 AM 75.2 °F - 50.0 °F 41% 30.14 in 10.0 mi NE 4.6 mph - N/A   Clear
7:15 AM 77.0 °F - 50.0 °F 39% 30.15 in 10.0 mi Calm Calm - N/A   Clear
7:35 AM 77.0 °F - 51.8 °F 41% 30.15 in 10.0 mi SE 3.5 mph - N/A   Clear
7:55 AM 78.8 °F - 51.8 °F 39% 30.16 in 10.0 mi SE 6.9 mph - N/A   Clear
8:15 AM 77.0 °F - 51.8 °F 41% 30.17 in 10.0 mi SSE 3.5 mph - N/A   Clear
8:35 AM 77.0 °F - 51.8 °F 41% 30.17 in 10.0 mi Calm Calm - N/A   Clear
8:55 AM 78.8 °F - 53.6 °F 42% 30.17 in 10.0 mi East 3.5 mph - N/A   Clear
9:15 AM 78.8 °F - 51.8 °F 39% 30.17 in 10.0 mi Calm Calm - N/A   Clear
9:35 AM 78.8 °F - 53.6 °F 42% 30.17 in 10.0 mi Calm Calm - N/A   Clear
9:50 AM 78.8 °F - 51.8 °F 39% 30.18 in 10.0 mi Calm Calm - N/A   Clear
10:15 AM 80.6 °F 80.3 °F 53.6 °F 39% 30.18 in 10.0 mi WSW 4.6 mph - N/A   Clear
10:40 AM 82.4 °F 81.4 °F 53.6 °F 37% 30.18 in 10.0 mi WSW 5.8 mph - N/A   Scattered Clouds
10:50 AM 84.2 °F 82.8 °F 53.6 °F 35% 30.18 in 10.0 mi South 6.9 mph - N/A   Scattered Clouds
12:35 PM 89.6 °F 87.3 °F 53.6 °F 29% 30.15 in 10.0 mi SSE 9.2 mph 18.4 mph N/A   Scattered Clouds
12:55 PM 89.6 °F 87.3 °F 53.6 °F 29% 30.14 in 10.0 mi SSE 9.2 mph - N/A   Clear
1:15 PM 87.8 °F 85.7 °F 53.6 °F 31% 30.14 in 10.0 mi SSE 4.6 mph - N/A   Clear
2:35 PM 89.6 °F 87.3 °F 53.6 °F 29% 30.11 in 10.0 mi South 12.7 mph 16.1 mph N/A   Scattered Clouds
2:55 PM 87.8 °F 85.7 °F 53.6 °F 31% 30.11 in 10.0 mi South 12.7 mph 18.4 mph N/A   Clear
3:15 PM 89.6 °F 87.3 °F 53.6 °F 29% 30.10 in 10.0 mi SSE 12.7 mph 21.9 mph N/A   Clear
4:15 PM 87.8 °F 85.7 °F 53.6 °F 31% 30.10 in 10.0 mi South 11.5 mph 19.6 mph N/A   Clear
4:55 PM 86.0 °F 84.2 °F 53.6 °F 33% 30.08 in 10.0 mi SE 15.0 mph 21.9 mph N/A   Overcast
5:15 PM 86.0 °F 84.2 °F 53.6 °F 33% 30.08 in 10.0 mi SSE 13.8 mph 20.7 mph N/A   Mostly Cloudy
5:35 PM 84.2 °F 82.8 °F 53.6 °F 35% 30.07 in 10.0 mi SE 11.5 mph 19.6 mph N/A   Scattered Clouds
6:15 PM 82.4 °F 81.7 °F 55.4 °F 39% 30.08 in 10.0 mi SSW 5.8 mph 16.1 mph N/A   Clear
6:35 PM 80.6 °F 80.5 °F 55.4 °F 42% 30.08 in 10.0 mi SSW 5.8 mph - N/A   Clear
6:55 PM 80.6 °F 80.3 °F 53.6 °F 39% 30.08 in 10.0 mi SSW 5.8 mph - N/A   Clear
7:15 PM 80.6 °F 80.3 °F 53.6 °F 39% 30.10 in 10.0 mi SW 6.9 mph - N/A   Scattered Clouds
8:15 PM 78.8 °F - 53.6 °F 42% 30.11 in 10.0 mi Calm Calm - N/A   Clear
8:35 PM 77.0 °F - 53.6 °F 44% 30.12 in 10.0 mi SE 3.5 mph - N/A   Clear
8:55 PM 77.0 °F - 53.6 °F 44% 30.12 in 10.0 mi SE 3.5 mph - N/A   Clear
9:15 PM 77.0 °F - 53.6 °F 44% 30.13 in 10.0 mi SE 4.6 mph - N/A   Clear
9:35 PM 77.0 °F - 53.6 °F 44% 30.13 in 10.0 mi Calm Calm - N/A   Clear
9:55 PM 77.0 °F - 53.6 °F 44% 30.14 in 10.0 mi Calm Calm - N/A   Clear
10:15 PM 75.2 °F - 53.6 °F 47% 30.13 in 10.0 mi NE 3.5 mph - N/A   Clear
10:30 PM 75.2 °F - 53.6 °F 47% 30.14 in 10.0 mi NNE 6.9 mph - N/A   Clear
10:55 PM 75.2 °F - 53.6 °F 47% 30.14 in 10.0 mi NE 12.7 mph 16.1 mph N/A   Clear
11:15 PM 73.4 °F - 53.6 °F 50% 30.13 in 10.0 mi NE 15.0 mph 19.6 mph N/A   Clear
11:35 PM 73.4 °F - 53.6 °F 50% 30.13 in 10.0 mi NE 15.0 mph 19.6 mph N/A   Clear
11:55 PM 73.4 °F - 53.6 °F 50% 30.12 in 10.0 mi NE 15.0 mph - N/A   Clear